This is the latest recevied weather packets stored in our database for station/object K1LBG. If no packets are shown the sender has not sent any weather packets the latest 10 day(s).
| Time | Temp. | Humidity | Pressure | Rain* | Wind** | Luminosity | Snow |
|---|---|---|---|---|---|---|---|
| 1777559490 | 8.89° C | 95% | 1007.3 hPa | 0.25 mm | - | - | - |
| 1777558884 | 8.89° C | 95% | 1007.5 hPa | 0.51 mm | - | - | - |
| 1777558605 | 8.89° C | 95% | 1007.3 hPa | 0.51 mm | - | - | - |
| 1777555000 | 8.33° C | 95% | 1008 hPa | 0.76 mm | - | - | - |
| 1777552900 | 8.33° C | 95% | 1008.1 hPa | 0.25 mm | - | - | - |
| 1777552589 | 8.33° C | 95% | 1008 hPa | 0.25 mm | - | - | - |
| 1777550786 | 7.78° C | 96% | 1007.9 hPa | 0 mm | - | - | - |
| 1777550508 | 7.78° C | 96% | 1007.9 hPa | 0 mm | - | - | - |
| 1777549887 | 7.78° C | 95% | 1008 hPa | 0 mm | - | - | - |
| 1777548986 | 7.78° C | 95% | 1007.7 hPa | 0 mm | - | - | - |
| 1777546287 | 7.22° C | 96% | 1007.6 hPa | 0 mm | - | - | - |
| 1777545405 | 7.22° C | 95% | 1007.5 hPa | 0 mm | - | - | - |
| 1777544795 | 7.22° C | 95% | 1007.4 hPa | 0 mm | - | - | - |
| 1777543599 | 7.22° C | 95% | 1007.4 hPa | 0.51 mm | - | - | - |
| 1777543009 | 7.22° C | 95% | 1007.5 hPa | 0.51 mm | - | - | - |
| 1777539982 | 7.22° C | 95% | 1007.6 hPa | 0.76 mm | - | - | - |
| 1777539701 | 7.22° C | 95% | 1007.7 hPa | 0.76 mm | - | - | - |
| 1777538182 | 7.22° C | 95% | 1007.8 hPa | 0.76 mm | - | - | - |
| 1777536997 | 7.22° C | 95% | 1008.3 hPa | 0.51 mm | - | - | - |
| 1777536707 | 7.78° C | 95% | 1008.4 hPa | 0.51 mm | - | - | - |
| 1777535797 | 7.22° C | 95% | 1008.7 hPa | 0.25 mm | - | - | - |
| 1777535506 | 7.22° C | 95% | 1008.8 hPa | 0.25 mm | - | - | - |
| 1777534025 | 7.22° C | 95% | 1009.3 hPa | 0 mm | - | - | - |
| 1777529788 | 7.22° C | 95% | 1009.6 hPa | 0 mm | - | - | - |
| 1777528614 | 7.22° C | 95% | 1009.8 hPa | 0 mm | - | - | - |
* Rain latest hour (hover to see other rain measurements)
** Current wind speed in m/s (hover to see current wind gust speed)